Simultaneous Nadir Overpasses (SNOs) Predictions

Prediction of SNOs over PacNW region [( 10.00, 139.50) to ( 22.70, 165.60)] between AQUA and NPP Satellites:

Table of predicted SNOs over PacNW region for the next 30.0 days since TLE Epoch: 7/19/2019
Index Date (AQUA) Time (AQUA) AQUA Lat,Lon Date (NPP) Time (NPP) NPP Lat,Lon Distance(km) Time Diff (sec)
1 07/20/2019 03:31:37 22.68, 147.54 07/20/2019 03:28:07 24.44, 145.27 303.55 210
2 07/25/2019 15:59:13 22.60, 147.50 07/25/2019 16:02:06 23.24, 144.52 312.97 173
3 08/02/2019 15:09:47 22.58, 159.85 08/02/2019 15:11:24 23.18, 157.19 280.02 97
4 08/05/2019 03:31:35 22.66, 147.54 08/05/2019 03:28:06 24.26, 145.31 288.23 209
5 08/10/2019 15:59:12 22.59, 147.49 08/10/2019 16:02:08 23.28, 144.53 312.15 176




NCC Satellite Simultaneous Nadir Overpasses (SNOs) Prediction Service
